Hourly Data Report for June 14, 2021

DRYDEN REGIONAL
ONTARIO
Current Station Operator: NAVCAN

49°49'39.000" N
92°44'39.000" W
412.70 m
6032125
71527
YHD

Download Data

Hourly Data (June 2021)
Hourly Data Report for June 14, 2021
TIME
LST
Temp Definition
°C
Dew Point Definition
°C
Rel Hum Definition
%
Precip. Amount Definition
mm

Wind Dir Definition
10's deg

Wind Spd Definition
km/h
Visibility Definition
km
Stn Press Definition
kPa
Hmdx Definition


Wind Chill Definition


Weather Definition


00:00 14.8 8.8 67 0.0 32 9 16.1 96.67     LegendNANA
01:00 13.8 9.0 72 0.0 LegendMM 4 16.1 96.67     LegendNANA
02:00 12.3 10.2 87 0.0 28 11 16.1 96.69     LegendNANA
03:00 12.1 9.4 84 0.0 25 11 16.1 96.67     LegendNANA
04:00 12.1 9.1 82 0.0 30 9 16.1 96.70     LegendNANA
05:00 13.2 9.1 76 0.0 30 9 16.1 96.76     LegendNANA
06:00 14.3 10.6 78 0.0 34 11 16.1 96.83     LegendNANA
07:00 14.7 9.1 69 0.0 1 15 16.1 96.93     LegendNANA
08:00 13.7 8.5 71 0.0 1 17 16.1 97.00     LegendNANA
09:00 13.6 9.2 74 0.0 35 11 16.1 97.05     LegendNANA
10:00 14.3 7.9 65 0.0 1 21 16.1 97.12     LegendNANA
11:00 16.0 9.2 64 0.0 36 17 16.1 97.16     LegendNANA
12:00 16.4 8.6 60 0.0 36 11 16.1 97.17     LegendNANA
13:00 17.2 9.3 60 0.0 1 11 16.1 97.19     LegendNANA
14:00 18.0 9.3 56 0.0 34 18 16.1 97.21     LegendNANA
15:00 18.5 9.5 55 0.0 2 13 16.1 97.27     LegendNANA
16:00 18.2 9.9 58 0.0 3 15 16.1 97.27     LegendNANA
17:00 18.6 10.3 58 0.0 3 15 16.1 97.26     LegendNANA
18:00 19.1 10.2 56 0.0 2 11 16.1 97.27     LegendNANA
19:00 18.6 10.2 58 0.0 2 9 16.1 97.32     LegendNANA
20:00 17.3 10.7 65 0.0 2 8 16.1 97.32     LegendNANA
21:00 16.4 11.2 71 0.0 8 4 16.1 97.34     LegendNANA
22:00 15.5 10.6 73 0.0 9 5 16.1 97.38     LegendNANA
23:00 15.4 11.9 80 0.0   0 16.1 97.38     LegendNANA

Notes on Data Quality.

Legend

  • E = Estimated
  • M = Missing
  • NA = Not Available*
  • [empty] = Indicates an unobserved value
Date modified: